Regional Weather Roundup
Issued by NWS

Home | Current Version | Previous Version | Text Only | Print | Product List | Glossary Off
Versions: 1 2 3 4 5 6 7 8 9 10 11 12 13 14 15 16 17 18 19 20 21 22 23 24 25 26 27 28 29 30 31 32 33 34 35 36 37 38 39 40 41 42 43 44 45 46 47 48 49 50

000
ASUS45 KABQ 301110
RWRNM
NEW MEXICO REGIONAL WEATHER ROUNDUP
NATIONAL WEATHER SERVICE ALBUQUERQUE NM
500 AM MDT SUN AUG 30 2015

NOTE: "FAIR" MEANS FEW OR NO CLOUDS BELOW 12,000 FEET AGL WITH NO
       SIGNIFICANT WEATHER OR OBSTRUCTIONS TO VISION.

      THIS PRODUCT IS RELEASED AS TWO VERSIONS.  ONE VERSION NEAR
      THE TOP OF THE HOUR CONTAINING PRELIMINARY DATA FROM ALBUQUERQUE
      AND OTHER STATIONS.  A FINAL VERSION WITH ADDITIONAL DATA IS
      ISSUED ABOUT 10 MINUTES AFTER THE HOUR.

NMZ501-503-504-510>518-301200-
NORTHWEST PLATEAU/NORTHCENTRAL MOUNTAINS

CITY           SKY/WX    TMP DP  RH WIND       PRES   REMARKS
FARMINGTON     PTCLDY    64  46  52 E9        30.20R
LOS ALAMOS     CLEAR     59  49  69 S5        30.35S
SANTA FE       CLEAR     55  49  80 N6        30.29S
TAOS           CLEAR     48  34  57 CALM      30.38S
ANGEL FIRE     FOG       35  35  98 CALM      30.45S VSB 3/4

$$
NMZ402-403-502-505>509-301200-
WESTCENTRAL MOUNTAINS/SOUTHWEST MOUNTAINS

CITY           SKY/WX    TMP DP  RH WIND       PRES   REMARKS
GALLUP         CLEAR     56  47  71 CALM      30.28S
GRANTS         CLEAR     51  48  90 CALM      30.31S
SILVER CITY      N/A     63  55  77 N12       30.22F

$$
NMZ407-409-411-412-301200-
SOUTHERN DESERTS

CITY           SKY/WX    TMP DP  RH WIND       PRES   REMARKS
DEMING         PTCLDY    64  58  80 E5        30.13F
LAS CRUCES     CLEAR     70  53  55 S3        30.16S
ALAMOGORDO     CLEAR     63  55  77 NW3       30.15R
T OR C         CLEAR     67  53  61 NW7       30.17F

$$
NMZ519>523-301200-
CENTRAL VALLEYS/CENTRAL HIGHLANDS

CITY           SKY/WX    TMP DP  RH WIND       PRES   REMARKS
ALBUQUERQUE    CLEAR     67  48  50 NE7       30.23S
DOUBLE EAGLE   CLEAR     57  48  72 NE3       30.25F
MORIARTY ARPT  FAIR      48  45  88 CALM      30.31S
CLINES CORNERS CLEAR     56  50  80 W7        30.33S
BELEN          FAIR      60  51  71 NE5       30.21S
SOCORRO        FAIR      65  51  60 N5        30.18S

$$
NMZ524>526-539-540-301200-
SOUTHCENTRAL MOUNTAINS

CITY           SKY/WX    TMP DP  RH WIND       PRES   REMARKS
RUIDOSO        CLEAR     57  46  67 MISG      30.34S

$$
NMZ527>531-301200-
NORTHEAST HIGHLANDS/NORTHEAST PLAINS

CITY           SKY/WX    TMP DP  RH WIND       PRES   REMARKS
LAS VEGAS      CLEAR     49  45  86 SE3       30.32S
RATON          CLEAR     52  48  86 NE5       30.26F
CLAYTON        CLEAR     61  53  75 W9        30.18S

$$
NMZ532>537-301200-
EASTCENTRAL PLAINS

CITY           SKY/WX    TMP DP  RH WIND       PRES   REMARKS
TUCUMCARI      CLEAR     61  54  77 W7        30.14S
CANNON AFB     NOT AVBL
CLOVIS AIRPORT CLEAR     59  54  82 NW7       30.17S

$$
NMZ028-029-538-301200-
SOUTHEAST PLAINS

CITY           SKY/WX    TMP DP  RH WIND       PRES   REMARKS
ROSWELL        CLEAR     64  57  78 CALM      30.13S
ARTESIA        CLEAR     64  64 100 CALM      30.14S
CARLSBAD       CLEAR     67  52  58 S5        30.11S


$$


USA.gov is the U.S. government's official web portal to all federal, state and local government web resources and services.